Location: Balaclava NSW 2575, Australia
(34.4510°S, 150.4953°E)
Time: 23:48:29
(UTC+10:00)

A-11 Canister half - All Passes

Search period start: 22 June 2021 00:00
Search period end: 02 July 2021 00:00
Orbit: 1527 x 1681 km, 47.3° (Epoch: 21 June)

Date Brightness Start Highest point End Pass type
(mag) Time Alt. Az. Time Alt. Az. Time Alt. Az.
22 Jun - 07:41:52 10° N 07:49:50 29° NE 07:57:59 10° ESE daylight
22 Jun - 09:44:09 10° NW 09:54:07 88° SW 10:04:23 10° SE daylight
22 Jun - 11:50:48 10° W 12:00:21 44° SSW 12:10:02 10° ESE daylight
22 Jun - 13:58:09 10° WSW 14:07:43 43° S 14:17:14 10° E daylight
22 Jun - 16:03:53 10° SW 16:14:11 80° SE 16:24:12 10° ENE daylight
22 Jun - 18:09:57 10° WSW 18:18:42 35° NW 18:27:14 10° N visible
23 Jun - 07:20:31 10° N 07:28:14 27° NE 07:36:07 10° ESE daylight
23 Jun - 09:22:30 10° NW 09:32:25 89° NNE 09:42:40 10° SE daylight
23 Jun - 11:29:00 10° W 11:38:34 45° SSW 11:48:16 10° SE daylight
23 Jun - 13:36:24 10° WSW 13:45:56 42° S 13:55:26 10° E daylight
23 Jun - 15:42:11 10° SW 15:52:28 77° SSE 16:02:30 10° ENE daylight
23 Jun - 17:48:08 10° WSW 17:57:04 37° NW 18:05:48 10° NNE visible
24 Jun - 06:59:11 10° N 07:06:37 25° NE 07:14:14 10° ESE daylight
24 Jun - 09:00:51 10° NW 09:10:44 86° NE 09:20:58 10° SE daylight
24 Jun - 11:07:13 10° W 11:16:47 46° SSW 11:26:32 10° SE daylight
24 Jun - 13:14:38 10° WSW 13:24:09 41° S 13:33:38 10° ESE daylight
24 Jun - 15:20:29 10° SW 15:30:45 74° SSE 15:40:48 10° ENE daylight
24 Jun - 17:26:20 10° WSW 17:35:26 39° NW 17:44:20 10° NNE visible
25 Jun - 06:37:53 10° N 06:45:01 23° NE 06:52:19 10° ESE visible
25 Jun - 08:39:12 10° NW 08:49:03 82° NE 08:59:15 10° SE daylight
25 Jun - 10:45:26 10° W 10:55:01 47° SSW 11:04:48 10° SE daylight
25 Jun - 12:52:52 10° WSW 13:02:21 41° S 13:11:50 10° ESE daylight
25 Jun - 14:58:46 10° SW 15:09:01 72° SSE 15:19:05 10° ENE daylight
25 Jun - 17:04:33 10° WSW 17:13:48 41° NW 17:22:51 10° NNE visible
26 Jun - 06:16:37 10° N 06:23:26 22° NE 06:30:22 10° E visible
26 Jun - 08:17:34 10° NW 08:27:22 79° NE 08:37:32 10° SE daylight
26 Jun - 10:23:39 10° W 10:33:14 48° SSW 10:43:03 10° SE daylight
26 Jun - 12:31:07 10° WSW 12:40:33 41° S 12:50:01 10° ESE daylight
26 Jun - 14:37:04 10° SW 14:47:18 69° SSE 14:57:21 10° ENE daylight
26 Jun - 16:42:46 10° WSW 16:52:10 44° NW 17:01:22 10° NNE daylight
27 Jun - 05:55:23 10° NNE 06:01:50 20° ENE 06:08:23 10° E visible
27 Jun - 07:55:58 10° NW 08:05:42 76° NE 08:15:49 10° ESE daylight
27 Jun - 10:01:53 10° W 10:11:28 49° SSW 10:21:19 10° SE daylight
27 Jun - 12:09:21 10° WSW 12:18:45 40° S 12:28:12 10° ESE daylight
27 Jun - 14:15:22 10° SW 14:25:34 67° SSE 14:35:37 10° ENE daylight
27 Jun - 16:21:00 10° WSW 16:30:31 47° NW 16:39:51 10° NNE daylight
28 Jun - 05:34:12 10° NNE 05:40:14 18° ENE 05:46:23 10° E visible
28 Jun - 07:34:21 10° NW 07:44:02 72° NE 07:54:05 10° ESE daylight
28 Jun - 09:40:06 10° W 09:49:43 51° SSW 09:59:35 10° SE daylight
28 Jun - 11:47:36 10° WSW 11:56:57 40° S 12:06:24 10° ESE daylight
28 Jun - 13:53:39 10° SW 14:03:50 64° SSE 14:13:52 10° ENE daylight
28 Jun - 15:59:14 10° WSW 16:08:53 49° NW 16:18:20 10° NNE daylight
29 Jun - 05:13:04 10° NNE 05:18:39 17° ENE 05:24:19 10° E visible
29 Jun - 07:12:45 10° NW 07:22:22 69° NE 07:32:21 10° ESE daylight
29 Jun - 09:18:21 10° W 09:27:57 52° SSW 09:37:50 10° SE daylight
29 Jun - 11:25:49 10° WSW 11:35:09 40° S 11:44:35 10° ESE daylight
29 Jun - 13:31:57 10° SW 13:42:05 62° SSE 13:52:07 10° ENE daylight
29 Jun - 15:37:29 10° WSW 15:47:13 52° NW 15:56:47 10° NNE daylight
29 Jun - 17:50:06 10° WNW 17:50:42 10° WNW 17:51:18 10° WNW visible
30 Jun - 04:52:01 10° NNE 04:57:04 15° ENE 05:02:11 10° E visible
30 Jun - 06:51:10 10° NW 07:00:43 66° NE 07:10:38 10° ESE daylight
30 Jun - 08:56:35 10° W 09:06:12 53° SSW 09:16:07 10° SE daylight
30 Jun - 11:04:03 10° WSW 11:13:21 40° S 11:22:46 10° ESE daylight
30 Jun - 13:10:15 10° SW 13:20:20 60° SSE 13:30:22 10° ENE daylight
30 Jun - 15:15:45 10° WSW 15:25:34 55° NW 15:35:14 10° NNE daylight
30 Jun - 17:26:21 10° WNW 17:29:06 11° WNW 17:31:52 10° NW visible
01 Jul - 04:31:03 10° NNE 04:35:29 14° ENE 04:39:58 10° E visible
01 Jul - 06:29:36 10° NW 06:39:03 62° NE 06:48:53 10° ESE visible
01 Jul - 08:34:50 10° W 08:44:27 55° SSW 08:54:23 10° SE daylight
01 Jul - 10:42:17 10° WSW 10:51:33 39° S 11:00:58 10° ESE daylight
01 Jul - 12:48:34 10° SW 12:58:36 58° SSE 13:08:35 10° ENE daylight
01 Jul - 14:54:00 10° WSW 15:03:55 58° NW 15:13:40 10° NNE daylight
01 Jul - 17:03:43 10° W 17:07:31 13° WNW 17:11:18 10° NW daylight
